Weather History for Provincetown, MA

Change the Weather History Date:

Friday, January 31, 2014

  Actual Average Record
Temperature  
Mean Temperature 34 °F -  
Max Temperature 37 °F 35 °F 51 °F (2001)
Min Temperature 30 °F 25 °F 19 °F (1955)
Degree Days  
Heating Degree Days 32    
Moisture  
Dew Point 25 °F    
Average Humidity 68    
Maximum Humidity 87    
Minimum Humidity 45    
Precipitation  
Precipitation 0.06 in - - ()
Sea Level Pressure  
Sea Level Pressure 30.11 in    
Wind  
Wind Speed 11 mph (SW)    
Max Wind Speed 20 mph    
Max Gust Speed 25 mph    
Visibility 10 miles    
Events      
Averages and records for this station are not official NWS values.
T = Trace of Precipitation, MM = Missing Value Source: NWS Daily Summary

Daily Weather History Graph

Daily Weather History Graph

Search for Another Location

Airport:

Trip Planner

Search our weather history database for the weather conditions in past years. The results will help you decide how hot, cold, wet, or windy it might be!

Date:

Astronomy

Jan. 31, 2014 Rise Set
Actual Time 6:54 AM EST 4:54 PM EST
Civil Twilight 6:25 AM EST 5:24 PM EST
Nautical Twilight 5:51 AM EST 5:57 PM EST
Astronomical Twilight 5:18 AM EST 6:30 PM EST
Moon 7:00 AM EST (1/31) 6:16 PM EST (1/31)
Length of Visible Light 10h 58m
Length of Day
9h 59m
New Moon, 1% of the Moon is Illuminated
Jan 31
New Moon
Feb 6
First Quarter
Feb 14
Full
Feb 22
Last Quarter
Mar 1
New

Hourly Weather History & Observations

Time (EST) Temp. Windchill Dew Point Humidity Pressure Visibility Wind Dir Wind Speed Gust Speed Precip Events Conditions
12:15 AM 30.2 °F 20.2 °F 21.2 °F 69% 30.22 in 10.0 mi SSW 12.7 mph 20.7 mph 0.01 in   Clear
12:35 AM 30.2 °F 20.8 °F 21.2 °F 69% 30.21 in 10.0 mi SSW 11.5 mph 23.0 mph 0.02 in   Partly Cloudy
12:55 AM 30.2 °F 20.2 °F 24.8 °F 80% 30.19 in 10.0 mi SSW 12.7 mph 18.4 mph 0.03 in   Mostly Cloudy
1:15 AM 30.2 °F 20.2 °F 23.0 °F 75% 30.18 in 10.0 mi South 12.7 mph 16.1 mph N/A   Mostly Cloudy
1:35 AM 32.0 °F 23.0 °F 24.8 °F 75% 30.17 in 10.0 mi South 11.5 mph 19.6 mph N/A   Mostly Cloudy
1:55 AM 32.0 °F 22.5 °F 24.8 °F 75% 30.17 in 10.0 mi South 12.7 mph 19.6 mph N/A   Overcast
2:15 AM 32.0 °F 21.2 °F 24.8 °F 75% 30.15 in 10.0 mi SSW 16.1 mph 21.9 mph N/A   Scattered Clouds
2:35 AM 32.0 °F 22.1 °F 24.8 °F 75% 30.14 in 10.0 mi South 13.8 mph 19.6 mph N/A   Clear
2:55 AM 32.0 °F 23.6 °F 24.8 °F 75% 30.14 in 10.0 mi South 10.4 mph 18.4 mph N/A   Partly Cloudy
3:15 AM 32.0 °F 23.0 °F 26.6 °F 80% 30.14 in 10.0 mi South 11.5 mph 16.1 mph N/A   Mostly Cloudy
3:35 AM 32.0 °F 22.5 °F 26.6 °F 80% 30.12 in 10.0 mi South 12.7 mph - 0.01 in   Mostly Cloudy
3:55 AM 32.0 °F 22.1 °F 26.6 °F 80% 30.10 in 10.0 mi South 13.8 mph 18.4 mph 0.01 in   Mostly Cloudy
4:15 AM 33.8 °F 23.9 °F 26.6 °F 75% 30.10 in 10.0 mi South 15.0 mph 18.4 mph N/A   Mostly Cloudy
4:35 AM 33.8 °F 23.9 °F 26.6 °F 75% 30.09 in 10.0 mi South 15.0 mph 20.7 mph N/A   Overcast
4:55 AM 33.8 °F 25.3 °F 28.4 °F 81% 30.08 in 10.0 mi South 11.5 mph 19.6 mph N/A   Overcast
5:15 AM 33.8 °F 25.3 °F 28.4 °F 81% 30.08 in 10.0 mi South 11.5 mph 18.4 mph N/A   Overcast
5:35 AM 33.8 °F 25.3 °F 28.4 °F 81% 30.08 in 10.0 mi South 11.5 mph - N/A   Overcast
5:55 AM 33.8 °F 24.8 °F 30.2 °F 87% 30.08 in 10.0 mi South 12.7 mph 16.1 mph N/A   Overcast
6:15 AM 33.8 °F 25.3 °F 30.2 °F 87% 30.07 in 10.0 mi South 11.5 mph - N/A   Overcast
6:35 AM 35.6 °F 27.5 °F 30.2 °F 81% 30.08 in 10.0 mi SSW 11.5 mph - N/A   Overcast
6:55 AM 35.6 °F 27.5 °F 30.2 °F 81% 30.08 in 10.0 mi SW 11.5 mph - N/A   Overcast
7:15 AM 33.8 °F 25.8 °F 28.4 °F 81% 30.10 in 10.0 mi West 10.4 mph - N/A   Overcast
7:35 AM 33.8 °F 26.4 °F 30.2 °F 87% 30.10 in 10.0 mi WSW 9.2 mph - N/A   Overcast
7:55 AM 35.6 °F 27.1 °F 28.4 °F 75% 30.08 in 10.0 mi SW 12.7 mph - N/A   Mostly Cloudy
8:15 AM 35.6 °F 28.0 °F 28.4 °F 75% 30.09 in 10.0 mi SW 10.4 mph - 0.01 in   Partly Cloudy
8:35 AM 35.6 °F 27.1 °F 30.2 °F 81% 30.10 in 10.0 mi SW 12.7 mph - 0.01 in   Mostly Cloudy
8:55 AM 35.6 °F 28.0 °F 28.4 °F 75% 30.10 in 10.0 mi SW 10.4 mph - 0.01 in   Overcast
9:15 AM 35.6 °F 28.0 °F 28.4 °F 75% 30.09 in 10.0 mi SW 10.4 mph - N/A   Overcast
9:35 AM 35.6 °F 25.5 °F 26.6 °F 70% 30.09 in 10.0 mi WSW 17.3 mph 25.3 mph N/A   Partly Cloudy
9:55 AM 35.6 °F 25.5 °F 26.6 °F 70% 30.09 in 10.0 mi WSW 17.3 mph 23.0 mph N/A   Scattered Clouds
10:15 AM 35.6 °F 25.9 °F 24.8 °F 65% 30.09 in 10.0 mi WSW 16.1 mph 21.9 mph N/A   Overcast
10:35 AM 35.6 °F 24.8 °F 23.0 °F 60% 30.09 in 10.0 mi WSW 19.6 mph 23.0 mph N/A   Scattered Clouds
10:55 AM 35.6 °F 26.6 °F 19.4 °F 52% 30.09 in 10.0 mi WSW 13.8 mph 21.9 mph N/A   Scattered Clouds
11:15 AM 35.6 °F 26.6 °F 19.4 °F 52% 30.08 in 10.0 mi West 13.8 mph - N/A   Partly Cloudy
11:35 AM 35.6 °F 28.6 °F 21.2 °F 56% 30.06 in 10.0 mi WSW 9.2 mph 17.3 mph N/A   Clear
11:55 AM 35.6 °F 29.2 °F 21.2 °F 56% 30.06 in 10.0 mi WSW 8.1 mph - N/A   Mostly Cloudy
12:15 PM 35.6 °F 28.0 °F 19.4 °F 52% 30.05 in 10.0 mi West 10.4 mph - N/A   Overcast
12:35 PM 35.6 °F 27.5 °F 21.2 °F 56% 30.05 in 10.0 mi West 11.5 mph - N/A   Overcast
12:55 PM 35.6 °F 28.6 °F 21.2 °F 56% 30.06 in 10.0 mi West 9.2 mph - N/A   Mostly Cloudy
1:15 PM 37.4 °F 30.3 °F 21.2 °F 52% 30.05 in 10.0 mi WSW 10.4 mph - 0.01 in   Partly Cloudy
1:35 PM 37.4 °F 30.8 °F 19.4 °F 48% 30.05 in 10.0 mi WSW 9.2 mph - 0.01 in   Clear
1:55 PM 37.4 °F 30.8 °F 19.4 °F 48% 30.05 in 10.0 mi WSW 9.2 mph - 0.01 in   Clear
2:15 PM 37.4 °F 31.4 °F 17.6 °F 45% 30.04 in 10.0 mi WSW 8.1 mph - N/A   Scattered Clouds
2:35 PM 37.4 °F 31.4 °F 17.6 °F 45% 30.05 in 10.0 mi WSW 8.1 mph - N/A   Overcast
2:55 PM 37.4 °F 31.4 °F 17.6 °F 45% 30.07 in 10.0 mi WSW 8.1 mph - N/A   Scattered Clouds
3:15 PM 37.4 °F 32.1 °F 19.4 °F 48% 30.08 in 10.0 mi WSW 6.9 mph - N/A   Clear
3:35 PM 37.4 °F 33.8 °F 23.0 °F 56% 30.07 in 10.0 mi SW 4.6 mph - N/A   Clear
3:55 PM 37.4 °F 33.8 °F 23.0 °F 56% 30.09 in 10.0 mi SSW 4.6 mph - N/A   Clear
4:15 PM 35.6 °F - 24.8 °F 65% 30.08 in 10.0 mi Calm Calm - N/A   Partly Cloudy
4:35 PM 35.6 °F 32.8 °F 21.2 °F 56% 30.09 in 10.0 mi South 3.5 mph - N/A   Mostly Cloudy
4:55 PM 35.6 °F 29.9 °F 24.8 °F 65% 30.10 in 10.0 mi SSW 6.9 mph - N/A   Overcast
5:15 PM 35.6 °F 28.6 °F 24.8 °F 65% 30.08 in 10.0 mi SSW 9.2 mph - N/A   Mostly Cloudy
5:35 PM 35.6 °F 29.2 °F 24.8 °F 65% 30.09 in 10.0 mi SSW 8.1 mph - N/A   Mostly Cloudy
5:55 PM 35.6 °F 29.2 °F 24.8 °F 65% 30.10 in 10.0 mi SW 8.1 mph - N/A   Partly Cloudy
6:15 PM 35.6 °F 27.5 °F 26.6 °F 70% 30.11 in 10.0 mi SW 11.5 mph - N/A   Clear
6:35 PM 35.6 °F 28.0 °F 26.6 °F 70% 30.12 in 10.0 mi SW 10.4 mph - N/A   Partly Cloudy
6:55 PM 35.6 °F 28.0 °F 28.4 °F 75% 30.12 in 10.0 mi SW 10.4 mph - N/A   Mostly Cloudy
7:15 PM 35.6 °F 28.6 °F 28.4 °F 75% 30.14 in 10.0 mi WSW 9.2 mph - N/A   Overcast
7:35 PM 35.6 °F 29.2 °F 26.6 °F 70% 30.15 in 10.0 mi SW 8.1 mph - N/A   Overcast
7:55 PM 35.6 °F 31.7 °F 26.6 °F 70% 30.15 in 10.0 mi SW 4.6 mph - N/A   Overcast
8:15 PM 35.6 °F 30.7 °F 28.4 °F 75% 30.16 in 10.0 mi SW 5.8 mph - N/A   Overcast
8:35 PM 35.6 °F 29.9 °F 28.4 °F 75% 30.16 in 10.0 mi WSW 6.9 mph - N/A   Overcast
8:55 PM 35.6 °F 29.9 °F 26.6 °F 70% 30.16 in 10.0 mi SW 6.9 mph - N/A   Overcast
9:15 PM 35.6 °F 29.2 °F 26.6 °F 70% 30.17 in 10.0 mi WSW 8.1 mph - N/A   Overcast
9:35 PM 35.6 °F 30.7 °F 26.6 °F 70% 30.17 in 10.0 mi West 5.8 mph - N/A   Overcast
9:55 PM 35.6 °F 29.9 °F 24.8 °F 65% 30.17 in 10.0 mi West 6.9 mph - N/A   Mostly Cloudy
10:15 PM 35.6 °F 29.9 °F 26.6 °F 70% 30.17 in 10.0 mi WSW 6.9 mph - N/A   Overcast
10:35 PM 35.6 °F 29.2 °F 26.6 °F 70% 30.19 in 10.0 mi West 8.1 mph - N/A   Overcast
10:55 PM 37.4 °F 30.8 °F 26.6 °F 65% 30.20 in 10.0 mi West 9.2 mph - N/A   Mostly Cloudy
11:15 PM 37.4 °F 31.4 °F 24.8 °F 60% 30.19 in 10.0 mi West 8.1 mph - N/A   Partly Cloudy
11:35 PM 35.6 °F 29.9 °F 24.8 °F 65% 30.20 in 10.0 mi West 6.9 mph - N/A   Partly Cloudy
11:55 PM 35.6 °F 28.6 °F 24.8 °F 65% 30.21 in 10.0 mi West 9.2 mph - N/A   Scattered Clouds